{"data":{"norad_id":66822,"epoch":"2026-05-25T02:42:31.072896Z","epoch_age_seconds":55378,"freshness":"FRESH","line1":"1 66822U 25280B   26145.11285964  .00003064  00000+0  26451-3 0  9998","line2":"2 66822  70.0007 141.7559 0003782 260.3062  99.7670 14.98327877 27521","mean_motion":14.98327877,"eccentricity":0.0003782,"inclination_deg":70.0007,"raan_deg":141.7559,"arg_perigee_deg":260.3062,"mean_anomaly_deg":99.767,"bstar":0.00026451,"rev_number":2752,"period_min":96.107135300934,"perigee_km":569.43389072022,"apogee_km":574.69102158886,"semimajor_km":6950.1994561545,"source":"CELESTRAK","updated_at":"2026-05-25T13:38:21.333511Z"}}